Terminal Aerodrome Forecast
Issued by NWS

Home | Current Version | Previous Version | Text Only | Print | Product List | Glossary On
Versions: 1 2 3 4 5 6 7 8 9 10 11 12 13 14 15 16 17 18 19 20 21 22 23 24 25 26 27 28 29 30 31
472
FTUS41 KOKX 300332 AAB
TAFHPN
TAF AMD
KHPN 300332Z 3004/3024 06015G22KT P6SM OVC025
     FM300600 04016G23KT P6SM OVC015
     FM301100 07017G24KT P6SM -RA OVC015
     FM301600 07018G26KT 3SM RA OVC010
      AMD NOT SKED=

USA.gov is the U.S. government's official web portal to all federal, state and local government web resources and services.